• In Hungary
  • List of Countries
  • For 7 days
  • Water Temperature
  • Satellite Maps
  • Weather Map
  • News
  • Weather Widgets
  • user-avatar
    Login

    Hourly Weather Shelkovschina

    Today, 20 October, Saturday

    Time Temperature Precipitation Wind Pressure Humidity
    00:00 +6°C° 0 mm 2 mps 753 mmHg 89%
    01:00 +6°C° 0 mm 2 mps 753 mmHg 90%
    02:00 +6°C° 0 mm 1 mps 754 mmHg 90%
    03:00 +6°C° 0 mm 1 mps 754 mmHg 90%
    04:00 +5°C° 0 mm 1 mps 754 mmHg 90%
    05:00 +5°C° 0 mm 1 mps 754 mmHg 90%
    06:00 +5°C° 0 mm 1 mps 754 mmHg 88%
    07:00 +6°C° 0 mm 1 mps 754 mmHg 86%
    08:00 +6°C° 0 mm 1 mps 754 mmHg 84%
    09:00 +8°C° 0 mm 1 mps 754 mmHg 77%
    10:00 +9°C° 0 mm 1 mps 754 mmHg 69%
    11:00 +11°C° 0 mm 1 mps 754 mmHg 61%
    12:00 +11°C° 0 mm 1 mps 754 mmHg 58%
    13:00 +12°C° 0 mm 1 mps 754 mmHg 55%
    14:00 +12°C° 0 mm 1 mps 754 mmHg 52%
    15:00 +11°C° 0 mm 1 mps 754 mmHg 57%
    16:00 +10°C° 0 mm 1 mps 754 mmHg 62%
    17:00 +8°C° 0 mm 1 mps 754 mmHg 67%
    18:00 +8°C° 0 mm 1 mps 754 mmHg 69%
    19:00 +7°C° 0 mm 1 mps 754 mmHg 72%
    20:00 +7°C° 0 mm 1 mps 754 mmHg 75%
    21:00 +6°C° 0 mm 1 mps 754 mmHg 77%
    22:00 +6°C° 0 mm 1 mps 754 mmHg 79%
    23:00 +5°C° 0 mm 1 mps 755 mmHg 81%

    Tomorrow, 21 October, Sunday

    Time Temperature Precipitation Wind Pressure Humidity
    00:00 +5°C° 0 mm 1 mps 755 mmHg 83%
    01:00 +5°C° 0 mm 1 mps 755 mmHg 84%
    02:00 +5°C° 0 mm 1 mps 755 mmHg 86%
    03:00 +4°C° 0 mm 1 mps 755 mmHg 87%
    04:00 +4°C° 0 mm 1 mps 755 mmHg 88%
    05:00 +4°C° 0 mm 1 mps 755 mmHg 89%
    06:00 +4°C° 0 mm 1 mps 756 mmHg 88%
    07:00 +4°C° 0 mm 1 mps 756 mmHg 87%
    08:00 +5°C° 0 mm 1 mps 756 mmHg 86%
    09:00 +6°C° 0 mm 1 mps 757 mmHg 79%
    10:00 +8°C° 0 mm 1 mps 757 mmHg 72%
    11:00 +10°C° 0 mm 1 mps 757 mmHg 64%
    12:00 +10°C° 0 mm 1 mps 757 mmHg 61%
    13:00 +11°C° 0 mm 1 mps 757 mmHg 58%
    14:00 +11°C° 0 mm 1 mps 757 mmHg 55%
    15:00 +10°C° 0 mm 1 mps 757 mmHg 60%
    16:00 +9°C° 0 mm 1 mps 757 mmHg 65%
    17:00 +6°C° 0 mm 0 mps 757 mmHg 70%
    18:00 +6°C° 0 mm 0 mps 757 mmHg 73%
    19:00 +5°C° 0 mm 0 mps 757 mmHg 75%
    20:00 +5°C° 0 mm 0 mps 758 mmHg 77%
    21:00 +5°C° 0 mm 0 mps 758 mmHg 79%
    22:00 +5°C° 0 mm 1 mps 758 mmHg 80%
    23:00 +5°C° 0 mm 1 mps 757 mmHg 82%

    Day after tomorrow, 22 October, Monday

    Time Temperature Precipitation Wind Pressure Humidity
    00:00 +5°C° 0 mm 1 mps 757 mmHg 83%
    01:00 +4°C° 0 mm 1 mps 757 mmHg 85%
    02:00 +4°C° 0 mm 1 mps 757 mmHg 86%
    03:00 +4°C° 0 mm 1 mps 757 mmHg 87%
    04:00 +4°C° 0 mm 1 mps 757 mmHg 87%
    05:00 +3°C° 0 mm 1 mps 756 mmHg 88%
    06:00 +4°C° 0 mm 1 mps 756 mmHg 87%
    07:00 +3°C° 0 mm 2 mps 756 mmHg 85%
    08:00 +3°C° 0 mm 2 mps 756 mmHg 84%
    09:00 +5°C° 0 mm 2 mps 756 mmHg 77%
    10:00 +7°C° 0 mm 2 mps 755 mmHg 70%
    11:00 +8°C° 0 mm 3 mps 755 mmHg 63%
    12:00 +9°C° 0 mm 3 mps 754 mmHg 61%
    13:00 +10°C° 0 mm 3 mps 754 mmHg 59%
    14:00 +10°C° 0 mm 3 mps 753 mmHg 57%
    15:00 +9°C° 0 mm 3 mps 753 mmHg 63%
    16:00 +8°C° 0 mm 3 mps 752 mmHg 68%
    17:00 +7°C° 0 mm 2 mps 752 mmHg 74%
    18:00 +5°C° 0 mm 3 mps 752 mmHg 77%
    19:00 +5°C° 0 mm 3 mps 751 mmHg 79%
    20:00 +4°C° 0 mm 3 mps 751 mmHg 82%
    21:00 +4°C° 0 mm 3 mps 750 mmHg 85%
    22:00 +4°C° 0 mm 3 mps 750 mmHg 88%
    23:00 +3°C° 0 mm 3 mps 749 mmHg 91%

    23 October, Tuesday

    Time Temperature Precipitation Wind Pressure Humidity
    00:00 +3°C° 0 mm 3 mps 749 mmHg 92%
    01:00 +3°C° 0 mm 3 mps 748 mmHg 93%
    02:00 +3°C° 0 mm 3 mps 748 mmHg 94%
    03:00 +3°C° 0 mm 3 mps 748 mmHg 94%
    04:00 +4°C° 0 mm 2 mps 747 mmHg 94%
    05:00 +4°C° 0 mm 2 mps 747 mmHg 94%
    06:00 +5°C° 0.2 mm 2 mps 747 mmHg 94%
    07:00 +4°C° 0.2 mm 3 mps 746 mmHg 94%
    08:00 +4°C° 0.2 mm 3 mps 746 mmHg 94%
    09:00 +5°C° 0.1 mm 3 mps 746 mmHg 89%
    10:00 +7°C° 0.1 mm 3 mps 746 mmHg 84%
    11:00 +6°C° 0.1 mm 4 mps 746 mmHg 79%
    12:00 +8°C° 0 mm 3 mps 745 mmHg 74%
    13:00 +8°C° 0 mm 3 mps 745 mmHg 69%
    14:00 +8°C° 0 mm 3 mps 744 mmHg 64%
    15:00 +7°C° 0 mm 3 mps 744 mmHg 67%
    16:00 +5°C° 0 mm 3 mps 743 mmHg 71%
    17:00 +5°C° 0 mm 2 mps 743 mmHg 74%
    18:00 +4°C° 0 mm 3 mps 742 mmHg 75%
    19:00 +3°C° 0 mm 3 mps 741 mmHg 75%
    20:00 +3°C° 0 mm 4 mps 740 mmHg 75%
    21:00 +3°C° 0 mm 4 mps 739 mmHg 75%
    22:00 +2°C° 0 mm 5 mps 738 mmHg 74%
    23:00 +2°C° 0 mm 6 mps 737 mmHg 73%

    24 October, Wednesday

    Time Temperature Precipitation Wind Pressure Humidity
    00:00 +2°C° 0.1 mm 6 mps 735 mmHg 73%
    01:00 +3°C° 0.1 mm 7 mps 734 mmHg 73%
    02:00 +3°C° 0.1 mm 7 mps 732 mmHg 73%
    03:00 +3°C° 0.4 mm 7 mps 731 mmHg 74%
    04:00 +2°C° 0.4 mm 8 mps 730 mmHg 76%
    05:00 +2°C° 0.4 mm 8 mps 728 mmHg 77%
    06:00 +3°C° 0.5 mm 7 mps 727 mmHg 78%
    07:00 +3°C° 0.5 mm 7 mps 726 mmHg 79%
    08:00 +3°C° 0.5 mm 7 mps 725 mmHg 81%
    09:00 +3°C° 0.5 mm 7 mps 725 mmHg 81%
    10:00 +3°C° 0.5 mm 6 mps 725 mmHg 82%
    11:00 +4°C° 0.5 mm 6 mps 724 mmHg 83%
    12:00 +5°C° 0.3 mm 5 mps 724 mmHg 84%
    13:00 +5°C° 0.3 mm 5 mps 724 mmHg 85%
    14:00 +6°C° 0.3 mm 4 mps 724 mmHg 86%
    15:00 +5°C° 0.2 mm 4 mps 724 mmHg 87%
    16:00 +5°C° 0.2 mm 4 mps 725 mmHg 87%
    17:00 +5°C° 0.2 mm 4 mps 725 mmHg 88%
    18:00 +5°C° 0.3 mm 5 mps 725 mmHg 87%
    19:00 +3°C° 0.3 mm 5 mps 726 mmHg 86%
    20:00 +3°C° 0.3 mm 6 mps 726 mmHg 85%
    21:00 +3°C° 0.2 mm 6 mps 727 mmHg 85%
    22:00 +3°C° 0.2 mm 6 mps 727 mmHg 84%
    23:00 +3°C° 0.2 mm 6 mps 727 mmHg 83%

    25 October, Thursday

    Time Temperature Precipitation Wind Pressure Humidity
    00:00 +3°C° 0.2 mm 6 mps 728 mmHg 84%
    01:00 +3°C° 0.2 mm 6 mps 728 mmHg 84%
    02:00 +3°C° 0.2 mm 6 mps 729 mmHg 85%
    03:00 +2°C° 0.2 mm 6 mps 729 mmHg 84%
    04:00 +2°C° 0.2 mm 7 mps 729 mmHg 82%
    05:00 +2°C° 0.2 mm 7 mps 730 mmHg 81%
    06:00 +2°C° 0.1 mm 7 mps 730 mmHg 79%
    07:00 0°C° 0.1 mm 7 mps 731 mmHg 78%
    08:00 0°C° 0.1 mm 7 mps 731 mmHg 76%
    09:00 0°C° 0.1 mm 7 mps 732 mmHg 74%
    10:00 +2°C° 0.1 mm 7 mps 732 mmHg 73%
    11:00 +3°C° 0.1 mm 7 mps 733 mmHg 71%
    12:00 +3°C° 0 mm 7 mps 733 mmHg 70%
    13:00 +3°C° 0 mm 7 mps 734 mmHg 68%
    14:00 +4°C° 0 mm 7 mps 734 mmHg 66%
    15:00 +3°C° 0 mm 6 mps 735 mmHg 69%
    16:00 +3°C° 0 mm 5 mps 735 mmHg 71%
    17:00 +4°C° 0 mm 4 mps 735 mmHg 74%
    18:00 +3°C° 0 mm 4 mps 736 mmHg 77%
    19:00 +2°C° 0 mm 3 mps 736 mmHg 81%
    20:00 +2°C° 0 mm 3 mps 736 mmHg 84%
    21:00 +1°C° 0 mm 3 mps 736 mmHg 86%
    22:00 0°C° 0 mm 3 mps 736 mmHg 88%
    23:00 +1°C° 0 mm 2 mps 736 mmHg 89%
    Show more